GEFSSE_con_cape1000_048.txt.gz
Probability
29 97 100 100 100 100 100 94 74 74 87 94 94 97 97 100 94 94 97 97 94 94 94 94 97 97 100 100 100 97 100 100 97 97 97 97 97 97 97 97 94 90 100
42 97 100 100 100 100 100 97 84 84 94 94 94 94 97 94 94 90 94 94 90 90 94 100 100 97 97 94 90 90 97 97 100 97 97 94 97 97 97 97 84 84 97
52 97 100 100 100 100 100 94 97 97 97 100 100 100 97 94 90 90 90 94 90 87 90 94 94 84 94 84 77 71 74 74 94 97 84 45 81 97 97 97 94 94 90
65 97 100 100 100 100 100 97 97 97 100 100 100 100 100 97 94 84 81 81 84 77 71 71 71 55 52 61 61 55 55 58 74 87 42 23 42 97 97 94 90 87 84
74 87 100 100 100 100 100 97 97 97 100 100 100 100 100 94 94 90 68 61 55 52 48 45 32 32 39 35 39 39 26 26 26 48 19 6 3 90 97 97 94 87 87
68 90 100 100 100 100 100 100 100 100 100 100 100 100 100 100 100 94 87 77 77 58 45 42 32 29 29 26 29 23 23 16 10 6 0 0 0 81 97 97 94 90 90
71 94 100 100 100 100 100 100 100 100 100 100 100 100 100 100 100 100 94 94 87 74 74 61 48 42 45 35 39 42 32 19 6 0 0 0 0 87 94 94 94 90 90
74 94 100 100 100 100 100 100 100 100 100 100 100 100 100 100 100 100 97 97 94 94 90 94 84 77 74 61 61 61 55 55 26 3 0 0 3 77 97 94 94 94 94
68 94 100 100 100 100 100 100 100 100 100 100 100 100 100 100 100 100 100 97 97 97 97 97 100 100 100 100 97 97 94 90 61 32 19 0 13 87 100 100 100 94 94
45 81 100 100 100 100 100 100 100 100 100 100 100 100 100 100 100 100 100 100 100 100 100 100 100 100 100 100 100 100 100 100 94 68 35 10 74 100 100 100 100 100 97
32 65 97 100 100 100 100 100 100 100 100 100 100 100 100 100 100 100 100 100 100 100 100 100 100 100 100 100 100 100 100 100 97 87 61 68 100 100 100 100 100 100 100
39 29 74 90 94 94 97 100 100 100 100 100 100 100 100 97 97 97 100 100 100 100 100 100 100 100 100 97 97 97 97 97 94 90 65 97 100 100 100 100 100 100 100
48 26 35 65 84 84 71 87 100 100 100 100 100 97 97 97 97 97 97 100 100 100 100 100 100 100 97 97 94 94 94 94 90 81 68 100 100 100 100 100 100 100 100
61 26 23 35 58 61 52 68 84 97 97 100 97 97 97 97 97 90 90 94 90 97 100 97 94 90 94 94 90 84 77 90 87 77 61 97 97 100 100 100 100 100 100
68 48 29 39 55 55 61 61 74 74 81 90 90 94 97 94 94 87 81 84 84 74 81 77 84 87 87 90 87 90 90 90 87 77 65 87 94 90 94 94 94 97 100
55 42 45 61 65 71 77 77 84 84 87 97 97 90 94 94 87 71 68 61 58 55 52 61 61 61 55 71 74 81 81 68 84 71 68 71 94 90 90 90 90 94 97
32 45 61 68 65 71 87 87 87 90 90 84 84 87 90 90 87 68 58 58 48 48 48 39 32 26 19 26 32 42 42 45 55 58 52 55 58 81 74 81 87 87 90
23 39 52 61 61 58 68 74 81 81 74 74 81 77 71 71 68 65 45 39 39 42 29 23 26 23 19 19 13 13 13 23 39 39 39 48 58 58 65 84 87 84 90
26 32 32 35 45 48 65 58 42 48 39 35 35 35 45 48 48 35 23 19 16 16 13 13 19 16 10 6 6 3 3 10 13 29 39 42 42 52 52 52 81 84 81
32 26 23 29 35 35 35 35 39 35 23 19 23 26 29 26 29 16 10 10 10 6 6 6 6 3 3 0 3 0 0 3 6 10 16 23 19 32 32 32 35 52 81
16 13 16 19 26 29 23 19 23 26 16 13 16 13 13 16 16 10 6 3 3 3 3 6 6 6 3 3 0 0 0 0 0 3 6 3 6 16 19 23 16 26 35
6 10 13 10 10 10 19 16 13 13 16 10 10 6 10 6 3 0 3 0 3 3 0 0 6 6 0 3 0 0 0 0 0 0 0 3 6 6 10 16 16 19 29
19 16 13 6 6 6 10 6 6 6 6 3 0 3 3 3 3 0 0 0 0 0 0 0 0 0 0 0 0 0 0 0 0 0 0 0 0 0 0 3 19 16 13
6 6 3 3 0 0 0 3 3 10 6 6 3 0 0 0 0 0 0 0 0 0 0 0 0 0 0 0 0 0 0 0 0 0 0 0 0 0 0 3 6 6 10
0 0 0 3 3 3 3 3 0 0 3 0 3 3 0 0 0 0 0 0 0 0 0 0 0 0 0 0 0 0 0 0 0 0 0 0 0 0 0 0 3 0 0
0 0 0 0 0 0 0 0 0 0 0 0 0 0 0 0 0 0 0 0 3 0 0 0 0 0 0 0 0 0 0 0 0 0 0 0 0 0 0 0 0 3 0

GEFSSE_con_cape1000_054.txt.gz
Probability
6 77 100 100 90 87 81 97 97 100 100 100 100 100 100 100 100 100 100 100 100 100 100 94 94 94 90 90 97 97 100 97 97 97 100 100 100 100 100 100 94 81 100
6 81 100 100 97 87 84 90 97 100 100 100 100 100 100 100 100 100 100 100 100 100 100 90 90 87 77 87 94 97 100 97 97 97 97 97 97 97 97 100 94 94 100
29 87 100 100 100 90 84 90 97 100 100 100 100 100 100 100 100 100 100 100 100 100 100 90 81 71 71 77 87 97 97 97 97 97 97 97 97 97 97 97 97 100 97
61 94 100 100 100 97 84 87 94 100 100 100 100 100 100 100 100 100 100 100 100 97 97 90 77 65 68 68 77 87 87 97 97 94 77 94 97 97 97 97 97 97 94
74 94 97 100 100 100 90 97 97 97 100 100 100 97 97 97 97 97 100 100 100 97 97 90 77 68 68 65 68 77 84 84 87 74 23 42 55 97 97 97 97 97 97
84 94 97 100 100 100 97 97 100 100 100 100 100 97 97 97 97 97 97 97 97 97 90 84 77 74 65 58 58 58 58 68 68 39 13 13 13 87 97 94 97 97 97
81 94 100 100 100 100 100 100 97 100 100 100 100 100 100 100 100 100 100 100 100 97 84 81 81 74 68 58 58 48 39 35 13 13 6 3 6 48 97 97 97 97 97
84 97 100 100 100 100 100 100 100 100 100 100 100 100 100 100 100 100 100 100 100 100 100 97 97 90 90 81 74 65 55 42 10 3 0 0 0 19 77 100 100 100 97
90 97 100 100 100 100 100 100 100 100 100 100 100 100 100 100 100 100 100 100 100 100 100 100 100 100 100 100 97 94 90 77 45 32 26 10 6 26 84 100 100 100 100
90 100 100 100 100 100 100 100 100 100 100 100 100 100 100 100 100 100 100 100 100 100 100 100 100 100 100 100 100 100 100 100 94 61 48 39 45 61 94 100 100 100 100
97 100 100 100 100 100 100 100 100 100 100 100 100 100 100 100 100 100 100 100 100 100 100 100 100 100 100 100 100 100 100 100 97 94 94 87 94 97 97 100 100 100 100
90 100 100 100 100 100 100 100 100 100 100 100 100 100 100 100 100 100 100 100 100 100 100 100 100 100 100 100 100 100 100 100 97 97 94 97 97 100 100 100 100 97 100
58 94 100 100 100 100 90 87 100 100 100 100 100 100 100 100 100 100 100 100 100 100 97 100 100 100 100 100 97 97 97 97 97 97 94 97 100 97 100 100 94 94 97
35 65 81 87 84 84 81 71 74 94 97 100 100 100 94 94 90 90 90 87 90 90 90 97 97 97 100 97 94 94 94 94 94 94 90 94 94 97 94 94 94 94 94
29 39 45 58 58 58 52 42 52 68 81 84 87 87 87 90 84 77 81 74 68 74 71 74 81 81 74 77 87 94 90 94 90 90 87 87 90 90 94 97 94 94 90
39 19 23 45 42 39 39 35 35 55 58 65 77 77 81 87 74 65 68 52 45 45 45 42 48 48 52 58 58 68 71 77 87 87 87 84 84 90 94 90 87 87 90
35 23 23 23 19 16 19 29 32 39 42 45 61 74 74 77 74 68 55 42 32 26 26 23 23 23 29 29 29 29 35 52 55 58 77 81 74 74 87 90 90 90 84
23 16 13 19 19 16 19 16 10 26 29 32 29 45 52 61 52 52 48 29 19 13 13 13 6 10 10 10 10 10 13 13 26 35 39 48 55 58 68 84 87 87 81
19 6 6 10 6 10 6 3 6 19 16 16 23 26 39 39 45 39 29 19 16 6 6 6 3 0 0 0 3 3 3 3 10 10 19 32 39 39 42 45 61 84 87
13 10 10 6 3 3 6 6 6 6 6 10 13 13 13 16 29 23 16 16 6 6 6 3 3 0 0 0 0 0 0 0 0 3 3 10 19 23 35 35 58 61 74
6 6 6 3 3 3 6 6 6 6 6 6 10 10 10 6 6 13 13 10 6 6 6 0 0 0 0 0 0 0 0 0 0 0 0 0 6 10 6 16 26 29 45
3 3 6 3 3 3 3 6 0 0 0 0 0 0 3 6 6 6 3 3 3 6 0 0 0 0 0 0 0 0 0 0 0 0 0 0 0 0 0 3 6 13 26
0 0 0 0 0 0 0 0 0 0 0 0 0 0 0 0 0 3 3 3 3 0 0 0 0 0 0 0 0 0 0 0 0 0 0 0 0 0 0 0 6 10 16
0 0 0 0 0 0 0 0 0 0 0 0 0 0 0 0 0 0 0 0 0 0 0 0 0 0 0 0 0 0 0 0 0 0 0 0 0 0 0 0 0 3 6
0 0 0 0 0 0 0 0 0 0 0 0 0 0 0 0 0 0 0 0 0 0 0 0 0 0 0 0 0 0 0 0 0 0 0 0 0 0 0 0 0 0 0
0 0 0 0 0 0 0 0 0 0 0 0 0 0 0 0 0 0 0 0 0 0 0 0 0 0 0 0 0 0 0 0 0 0 0 0 0 0 0 0 0 0 0

GEFSSE_con_cape1000_060.txt.gz
Probability
0 90 100 100 97 100 100 100 100 100 100 100 100 100 100 100 100 100 100 100 100 97 100 100 97 100 97 97 100 100 100 100 100 100 100 100 94 100 100 94 90 97 100
0 97 100 100 97 100 100 100 100 100 100 100 100 100 100 100 100 100 100 97 100 97 97 97 94 90 94 97 97 100 100 100 100 100 97 94 94 97 94 74 94 97 100
52 100 100 100 100 100 100 100 100 100 100 100 100 100 100 100 100 100 100 100 100 90 84 84 84 84 84 84 94 97 100 100 100 100 94 74 77 97 94 87 97 100 100
58 100 94 100 100 97 100 100 100 100 100 100 100 100 100 100 100 100 100 100 97 87 77 71 65 61 71 77 84 90 100 100 97 97 84 71 55 94 97 97 94 94 100
81 100 100 100 100 97 97 100 100 100 100 100 100 100 100 100 100 100 100 100 97 87 71 71 55 52 45 65 68 84 94 97 94 90 52 61 90 97 97 97 94 94 90
90 100 100 100 100 100 100 100 100 100 100 100 100 100 100 100 100 100 97 97 94 90 84 68 65 55 52 58 55 65 71 81 68 26 23 39 90 97 97 97 94 94 94
77 97 100 100 100 100 100 100 100 100 100 100 100 100 97 97 97 97 97 97 94 94 90 77 77 74 65 55 58 55 61 65 77 29 23 16 61 87 97 97 97 97 94
48 87 100 100 100 100 100 100 100 100 100 100 100 100 100 100 100 100 100 97 97 94 87 84 77 77 71 68 65 68 65 61 26 19 32 29 68 58 71 94 97 97 97
45 81 100 100 100 100 100 100 100 100 100 100 100 100 100 100 97 97 97 97 97 97 94 94 84 81 81 81 81 74 74 68 26 10 6 48 71 55 61 84 100 97 97
48 81 100 100 100 100 100 100 100 100 100 100 100 100 100 97 94 100 100 100 100 100 100 100 100 97 100 100 100 94 90 71 16 0 6 29 71 71 74 100 100 100 100
68 90 90 97 100 97 90 97 97 100 100 100 100 100 100 94 84 100 97 100 100 100 100 100 100 100 100 100 100 100 100 61 23 16 26 48 77 74 90 100 100 100 100
100 97 97 100 100 100 84 100 97 97 100 100 97 97 100 100 100 90 94 100 100 100 100 100 100 100 100 97 100 100 97 87 48 48 58 94 97 87 94 97 100 100 100
100 100 100 100 100 100 97 97 97 97 97 97 97 100 100 100 100 100 100 100 100 100 100 100 100 100 97 97 97 100 97 90 90 87 94 100 97 97 100 100 100 100 100
100 100 100 100 100 100 100 97 97 97 97 97 97 97 100 100 100 100 100 100 100 100 100 97 100 94 97 94 94 90 94 97 90 94 100 100 100 100 97 100 100 100 100
100 100 100 100 100 100 100 97 90 90 94 90 94 94 97 97 97 97 100 100 100 94 94 97 90 90 94 94 90 87 87 90 87 90 94 97 94 97 100 100 100 100 100
100 100 100 100 94 90 87 87 77 77 81 71 74 74 84 90 94 94 97 100 94 87 87 90 90 90 87 87 87 90 94 84 87 90 90 94 94 94 97 100 100 100 100
97 97 97 94 90 90 84 84 77 68 61 55 55 61 71 77 84 84 90 94 84 87 87 94 87 81 77 74 77 77 84 84 81 81 81 90 90 90 94 94 94 97 94
90 90 90 84 81 84 77 77 68 55 52 52 52 52 65 68 65 74 77 68 74 81 81 74 71 61 68 71 68 65 68 71 68 74 71 74 74 77 84 90 94 94 97
77 84 84 77 68 68 74 71 52 52 55 58 52 48 55 52 48 58 65 68 71 74 61 48 52 61 58 61 48 55 52 48 52 52 48 55 58 77 71 77 87 87 87
68 68 68 65 65 61 55 55 52 48 48 39 45 55 42 39 32 39 42 48 48 48 55 58 55 65 61 52 23 16 23 16 19 19 19 23 32 32 32 48 61 77 87
52 55 55 52 52 52 55 48 39 42 39 32 29 23 29 29 19 29 32 39 35 32 39 32 45 42 39 32 19 10 0 0 6 16 10 10 10 13 19 26 48 61 74
32 32 29 45 42 42 55 58 42 48 32 26 26 29 19 16 23 19 32 23 29 32 35 39 58 45 23 23 10 6 3 0 6 0 3 3 3 6 10 13 19 42 58
19 19 16 32 35 35 32 29 26 35 35 26 23 23 16 13 13 19 23 23 23 26 29 48 58 52 23 16 13 10 3 0 0 0 0 3 3 3 3 3 3 13 35
16 13 23 29 29 29 29 26 23 29 19 16 13 6 10 6 3 3 10 10 23 26 32 32 23 39 39 19 10 26 6 0 0 0 0 0 3 3 0 0 0 6 23
3 6 10 19 16 16 23 19 16 6 10 6 0 3 0 0 0 3 3 3 13 19 19 23 32 32 26 32 10 13 10 6 0 0 0 0 0 0 0 0 0 3 6
0 0 0 0 10 19 16 6 6 3 0 0 0 0 0 0 0 0 3 0 3 10 10 16 19 19 32 35 32 23 16 10 13 3 3 0 0 0 0 0 0 0 3

GEFSSE_con_cape1000_066.txt.gz
Probability
61 58 97 100 100 100 100 100 100 100 100 100 100 100 100 100 100 100 97 94 94 94 100 100 90 97 90 100 100 100 100 100 100 100 100 100 97 100 100 100 100 100 100
74 71 100 100 100 100 100 100 100 100 100 100 100 100 100 100 100 100 94 90 90 94 97 100 94 100 100 100 100 100 100 100 97 97 97 100 97 97 100 100 100 100 100
84 71 97 100 100 100 100 100 100 100 100 100 100 100 100 100 100 97 97 94 94 90 94 94 87 87 87 90 97 97 100 97 100 97 100 81 84 90 94 100 100 100 100
87 81 94 100 100 100 100 100 100 100 100 100 100 100 100 100 100 94 94 90 90 84 81 87 77 77 84 84 87 94 94 97 97 100 100 74 39 94 97 97 100 100 100
84 87 100 100 100 100 100 100 100 100 100 100 100 100 100 100 100 100 97 90 90 77 65 68 65 61 61 65 84 84 90 90 90 97 90 87 84 100 97 90 97 97 100
97 94 100 100 100 100 100 100 100 100 100 100 100 100 100 100 97 100 100 97 90 77 71 65 48 48 48 52 58 74 87 90 94 84 90 97 84 100 97 97 94 94 97
100 100 100 100 100 100 100 100 100 100 100 100 100 100 100 100 100 100 100 97 97 87 71 65 65 52 52 45 48 58 74 81 87 81 71 94 97 97 97 94 100 97 90
100 100 100 100 100 100 100 100 100 100 100 100 100 100 100 100 100 97 97 100 97 94 87 74 71 65 68 61 71 65 74 74 55 39 65 97 97 97 97 97 97 94 90
100 100 100 100 100 100 100 100 100 100 100 100 100 100 100 100 100 100 100 100 100 94 94 90 87 77 81 84 81 77 84 77 61 26 26 94 100 100 100 97 97 97 94
100 100 100 100 100 100 100 100 100 100 100 100 100 100 100 100 100 100 100 100 100 100 100 100 90 87 90 90 94 94 87 87 52 13 10 77 100 100 100 100 97 97 97
94 100 100 100 100 100 100 100 100 100 100 100 100 100 100 100 100 100 100 100 100 100 100 100 100 100 100 100 100 100 97 71 23 13 6 74 100 97 97 100 100 100 100
94 100 100 100 100 100 100 100 100 100 100 100 100 100 100 100 100 97 97 97 97 97 100 100 100 100 100 100 100 100 97 68 35 16 39 100 100 100 97 100 100 100 100
100 100 97 100 100 100 100 100 100 100 100 100 100 97 100 100 100 100 94 97 97 97 97 97 97 100 100 97 90 97 87 61 45 26 55 100 100 100 100 100 100 100 100
97 100 100 100 100 100 100 100 100 100 100 100 100 97 100 100 100 100 97 97 97 97 97 97 97 97 97 97 90 94 87 84 77 74 87 100 100 100 97 97 100 100 100
100 97 97 97 97 100 100 100 100 100 100 97 97 97 100 100 100 97 97 97 97 94 94 90 94 87 90 94 90 90 87 87 77 77 87 90 94 90 97 100 100 100 100
97 97 97 97 97 100 100 100 97 94 100 100 97 94 100 100 100 100 97 97 97 90 87 87 87 87 84 90 84 81 81 74 74 87 81 87 90 87 97 100 100 100 100
94 90 90 94 97 100 100 97 97 94 97 100 100 94 94 94 97 97 97 94 81 81 84 81 81 81 81 74 74 71 68 71 71 81 81 87 90 90 94 97 100 100 100
100 97 97 94 100 100 100 100 97 94 97 97 97 90 90 90 84 87 84 84 81 74 74 65 71 52 45 42 48 65 61 61 61 65 74 77 84 71 90 97 97 100 100
94 97 97 97 87 87 97 87 87 94 90 90 90 74 74 74 77 77 77 81 71 68 65 42 42 32 35 32 32 48 58 61 55 55 61 65 74 81 81 90 97 100 100
87 94 94 90 90 90 87 90 87 84 77 81 74 68 65 68 65 55 58 68 65 55 39 29 26 29 42 39 13 16 39 48 58 48 58 58 58 61 61 74 84 87 100
81 90 84 84 81 87 77 77 68 68 71 68 71 52 45 42 48 48 39 52 42 32 35 26 19 19 23 29 23 26 23 19 26 45 52 52 42 55 65 74 71 77 61
68 71 61 61 55 61 71 71 74 58 61 52 52 39 29 29 35 23 32 32 29 32 32 23 23 29 16 16 13 3 6 3 35 0 13 42 26 39 42 52 71 81 81
35 42 35 55 48 39 45 45 39 45 58 42 39 39 29 23 19 29 23 23 23 29 32 29 26 16 10 10 10 3 0 0 3 10 6 6 13 19 26 29 61 74 68
16 23 35 42 35 39 48 48 42 32 26 26 32 32 26 13 16 19 19 13 10 13 19 19 19 26 16 6 10 10 6 10 3 3 13 10 16 26 16 6 23 45 58
19 13 32 48 42 39 42 42 42 23 26 26 26 19 26 13 13 10 10 10 10 6 6 6 10 13 16 13 6 16 10 16 10 6 3 3 13 19 16 16 10 13 32
13 16 23 42 45 42 52 45 42 32 29 19 23 16 6 6 10 6 6 3 3 3 3 3 3 0 6 3 10 10 10 10 10 3 0 0 3 6 10 26 16 13 23

GEFSSE_con_cape1000_072.txt.gz
Probability
77 100 100 100 100 100 100 100 100 100 100 100 100 100 100 100 100 100 100 100 100 100 100 97 97 100 100 100 100 100 100 100 100 100 100 100 100 100 100 100 100 100 100
77 100 100 100 100 100 100 100 100 100 100 100 100 100 100 100 100 100 100 100 100 100 100 100 100 100 100 100 100 100 100 100 100 100 100 100 100 100 100 100 100 100 100
94 100 100 100 100 100 100 100 100 100 100 100 100 100 100 100 100 100 100 100 100 100 100 100 100 100 100 100 100 100 100 100 100 100 100 94 100 100 100 100 100 100 100
94 100 100 100 100 100 100 100 100 100 100 100 100 100 100 100 100 100 100 100 100 100 100 100 97 97 97 100 100 100 100 100 100 100 45 74 97 100 100 100 100 100 100
94 100 100 100 100 100 100 100 100 100 100 100 100 100 100 100 100 100 100 100 100 100 100 100 97 97 97 97 100 100 97 97 100 94 39 26 81 100 100 100 100 100 100
94 100 100 100 100 100 100 100 100 100 100 100 100 100 100 100 100 100 97 100 100 100 97 97 97 94 97 97 94 97 97 97 97 71 39 26 81 100 100 100 100 100 97
94 100 100 100 100 100 100 100 100 100 100 100 100 100 100 100 100 100 100 100 100 100 97 97 100 97 97 94 90 90 90 94 74 39 19 23 77 100 100 100 100 100 100
100 100 100 100 100 100 100 100 100 100 100 100 100 100 100 100 100 100 100 100 100 100 100 100 100 97 97 97 94 94 90 87 71 42 29 19 90 100 100 100 100 100 97
100 100 100 100 100 100 100 100 100 100 100 100 100 100 100 100 100 100 100 100 100 100 100 100 100 97 100 97 97 97 94 94 61 19 16 10 100 100 100 100 100 100 97
97 100 100 100 100 100 100 100 100 100 100 100 100 100 100 100 100 100 100 100 100 100 100 100 100 100 100 100 100 100 100 87 61 29 6 13 100 100 100 100 100 100 100
94 97 100 100 100 100 100 100 100 100 100 100 100 100 100 100 100 100 100 97 97 97 97 100 100 100 100 100 100 100 100 71 39 23 10 35 100 100 100 100 100 100 100
90 94 97 94 97 97 100 100 100 100 100 100 100 100 100 100 94 97 97 97 97 97 97 97 97 97 97 100 100 100 97 55 35 26 13 42 100 100 100 100 100 100 100
81 87 90 94 97 97 97 97 100 100 100 100 100 100 97 97 94 97 97 97 97 97 97 97 97 97 97 94 90 94 87 68 48 35 16 65 97 97 100 100 100 100 100
90 90 87 94 94 90 97 97 94 100 100 100 97 94 97 97 94 87 68 74 84 87 87 90 97 94 84 87 81 74 74 74 55 35 23 77 100 97 100 100 97 97 100
77 84 87 87 90 87 84 90 84 87 87 94 87 90 90 87 77 61 55 58 68 81 81 81 77 71 71 71 58 65 68 65 58 48 23 74 94 97 97 97 94 97 97
74 74 81 77 74 71 74 77 77 65 61 58 58 58 65 68 55 45 39 39 39 45 55 58 55 58 58 58 48 52 45 48 45 48 32 52 84 94 90 94 94 94 97
74 71 68 68 71 58 55 55 48 45 39 39 35 32 39 42 42 32 35 39 35 32 32 35 32 26 29 32 32 32 35 32 29 29 19 23 52 81 81 87 90 90 94
52 48 58 65 61 52 52 45 32 29 19 19 19 26 29 32 32 26 29 26 26 26 16 19 23 19 19 16 13 16 13 13 16 13 19 19 26 45 65 81 81 81 84
48 52 52 48 42 35 26 23 35 29 26 23 23 19 26 19 26 26 23 19 16 13 10 16 10 10 6 6 10 6 0 3 6 10 10 13 19 23 19 52 81 77 87
42 42 39 32 32 26 23 26 23 23 19 13 13 16 19 19 16 10 6 6 0 0 0 3 0 0 0 3 0 0 0 0 0 0 3 3 10 16 10 10 29 61 84
29 29 29 26 23 23 23 19 16 13 10 10 10 10 13 16 10 10 3 0 0 0 0 0 0 0 0 0 0 0 0 0 0 0 0 0 0 3 10 13 16 19 26
32 26 19 16 16 16 16 16 13 13 10 10 6 6 13 6 6 6 0 0 3 3 0 0 0 0 0 0 0 0 0 0 0 0 0 0 0 0 10 13 10 10 10
16 16 10 10 13 13 6 6 10 6 3 3 3 3 3 3 6 6 6 3 3 0 0 0 0 0 0 0 0 0 0 0 0 0 0 0 0 0 0 3 6 6 6
13 13 10 10 6 6 6 6 6 6 3 0 0 3 3 3 3 3 3 3 3 0 0 0 0 0 0 0 0 0 0 0 0 0 0 0 0 0 0 0 0 6 6
16 13 10 10 6 6 6 6 6 6 0 0 0 0 0 0 3 3 3 3 3 0 0 0 0 0 0 0 0 0 0 0 0 0 0 0 0 0 0 0 0 3 6
3 6 6 6 6 3 3 3 3 0 0 0 0 0 0 0 0 0 0 0 0 0 0 0 0 0 0 0 0 0 0 0 0 0 0 0 0 0 0 0 0 3 3

GEFSSE_con_cape1000_078.txt.gz
Probability
71 100 100 100 100 100 100 100 100 100 100 100 100 100 100 100 100 100 100 100 100 100 100 100 97 97 97 100 100 100 100 100 100 100 100 100 100 100 100 100 97 90 100
87 100 100 100 100 100 100 100 100 100 100 100 100 100 100 100 100 100 100 100 100 100 97 97 97 100 100 100 100 100 100 100 100 100 100 100 100 100 100 100 97 94 97
100 100 100 100 100 100 100 100 100 100 100 100 100 100 100 100 100 100 100 100 100 97 97 97 97 100 100 100 100 100 100 100 100 100 100 100 100 100 100 100 100 100 100
100 100 100 100 100 100 100 100 100 100 100 100 100 100 100 100 100 100 100 100 100 100 100 97 100 100 97 100 100 100 100 100 100 100 100 100 100 100 100 100 100 100 100
100 100 100 100 100 100 100 100 100 100 100 100 100 100 100 100 100 100 100 100 100 100 100 100 97 97 94 100 100 100 100 100 100 97 94 100 100 100 100 100 100 100 100
100 100 100 100 100 100 100 100 100 100 100 100 100 100 100 100 100 100 100 100 100 100 100 100 97 97 97 97 100 100 100 100 97 61 74 84 100 100 100 100 100 100 100
100 100 100 100 100 100 100 100 100 100 100 100 100 100 100 100 100 100 100 100 100 100 100 100 97 97 97 97 97 97 100 100 77 55 65 81 97 100 100 100 100 100 100
100 100 100 100 100 100 100 100 100 100 100 100 100 100 100 100 100 100 100 100 100 100 97 97 97 97 100 100 97 94 94 97 81 55 55 74 90 100 100 100 100 100 97
100 100 100 100 100 100 100 100 100 100 100 100 100 100 100 100 100 100 100 100 100 97 97 97 97 97 97 100 100 100 97 97 65 45 45 65 94 100 100 100 100 100 97
100 100 100 100 100 100 100 100 100 100 100 100 100 100 100 100 100 100 100 100 100 97 97 97 97 97 97 97 100 100 100 94 74 55 39 55 90 100 100 100 100 100 97
100 100 100 100 100 100 100 100 100 100 100 100 100 100 100 100 100 100 100 100 100 97 97 97 97 97 97 97 97 100 100 90 77 61 32 45 90 100 100 100 100 100 100
100 97 97 97 94 94 94 100 100 100 100 100 100 100 100 100 100 100 97 97 97 97 97 97 97 97 97 97 97 97 97 84 74 61 39 65 97 100 100 100 100 100 100
90 97 94 94 90 94 94 94 94 90 97 100 100 100 100 97 97 97 97 97 97 97 97 97 97 97 97 97 97 97 97 94 71 61 48 68 90 90 100 100 100 100 100
77 87 77 87 87 90 90 90 87 90 90 90 94 97 94 94 94 94 97 97 84 94 94 90 90 94 94 94 94 90 84 81 81 58 48 77 90 97 100 100 100 100 100
61 74 74 84 90 87 77 81 81 84 84 81 84 84 84 90 84 84 71 68 68 68 77 71 77 84 81 81 81 74 68 71 74 74 55 71 90 97 100 97 97 100 100
65 71 74 71 74 74 71 65 58 58 65 61 58 65 61 65 65 52 42 39 42 39 45 52 55 55 58 55 55 55 58 58 55 61 58 52 81 97 97 97 100 97 100
65 58 68 58 55 48 42 45 39 39 35 26 26 32 32 42 45 42 29 26 23 29 29 29 35 35 39 39 42 42 45 48 42 55 55 52 58 68 87 94 97 100 90
48 39 35 52 35 32 26 19 16 16 16 16 19 19 23 29 26 16 16 13 13 13 13 16 16 19 23 23 26 19 26 26 29 29 39 39 52 48 61 84 90 90 84
42 29 29 32 32 26 19 13 13 10 10 16 13 13 10 16 16 10 10 6 3 0 0 0 0 0 0 0 3 6 10 13 19 19 23 26 29 29 39 45 77 84 84
29 29 19 16 13 10 10 10 6 10 0 6 6 10 6 6 10 6 6 3 0 0 0 0 0 0 0 0 0 0 0 0 3 3 6 10 13 13 16 23 45 55 74
26 26 26 16 10 6 6 6 6 3 0 0 0 0 3 3 3 3 0 0 0 0 0 0 0 0 0 0 0 0 0 0 0 0 0 0 0 6 10 13 16 29 45
26 26 19 13 10 3 3 0 0 0 0 0 0 0 0 0 0 0 0 0 0 0 0 0 0 0 0 0 0 0 0 0 0 0 0 0 0 0 0 0 13 19 29
23 13 13 10 3 0 0 0 0 0 0 0 0 0 0 0 0 0 0 0 0 0 0 0 0 0 0 0 0 0 0 0 0 0 0 0 0 0 0 3 6 3 16
13 6 6 3 3 3 3 3 3 3 0 0 0 0 0 0 0 0 0 0 0 0 0 0 0 0 0 0 0 0 0 0 0 0 0 0 0 0 0 0 3 3 13
10 10 6 3 3 3 3 3 3 3 0 0 0 0 0 0 0 0 0 0 0 0 0 0 0 0 0 0 0 0 0 0 0 0 0 0 0 0 0 0 0 3 6
10 6 3 3 3 3 3 3 3 3 0 0 0 0 0 0 0 0 0 0 0 0 0 0 0 0 0 0 0 0 0 0 0 0 0 0 0 0 0 0 0 0 3